Location: Observatoire de Paris
(48.8363°N, 2.3365°E)
Time: 18:47:02
(UTC+01:00)

S-56A Canister/Altair - All Passes

Search period start: 28 July 2021 00:00
Search period end: 07 August 2021 00:00
Orbit: 631 x 2501 km, 38.9° (Epoch: 27 July)

Date Brightness Start Highest point End Pass type
(mag) Time Alt. Az. Time Alt. Az. Time Alt. Az.
28 Jul - 14:16:53 10° SSE 14:25:05 18° SE 14:33:43 10° E daylight
28 Jul - 16:16:02 10° SSW 16:28:54 40° SSE 16:41:52 10° E daylight
28 Jul - 18:19:46 10° WSW 18:34:15 56° S 18:47:06 10° E daylight
28 Jul - 20:25:36 10° W 20:39:42 51° SSW 20:50:53 10° SE daylight
28 Jul - 22:32:49 10° W 22:43:43 29° SW 22:52:16 10° SSE visible
29 Jul - 13:45:20 10° SSE 13:52:06 15° SE 13:59:17 10° E daylight
29 Jul - 15:43:15 10° SSW 15:55:35 38° SSE 16:08:29 10° E daylight
29 Jul - 17:46:30 10° WSW 18:00:46 55° S 18:14:05 10° E daylight
29 Jul - 19:52:01 10° W 20:06:23 53° SSW 20:18:12 10° ESE daylight
29 Jul - 21:58:55 10° W 22:10:46 33° SW 22:20:06 10° SSE visible
30 Jul - 13:14:25 10° SE 13:19:11 13° SE 13:24:11 10° ESE daylight
30 Jul - 15:10:37 10° SSW 15:22:19 35° SE 15:34:58 10° E daylight
30 Jul - 17:13:20 10° WSW 17:27:18 54° SSE 17:40:57 10° E daylight
30 Jul - 19:18:30 10° W 19:33:00 55° S 19:45:25 10° ESE daylight
30 Jul - 21:25:06 10° W 21:37:43 36° SSW 21:47:48 10° SSE visible
30 Jul - 23:35:30 10° WSW 23:40:23 13° SW 23:44:48 10° SSW visible
31 Jul - 14:38:06 10° SSW 14:49:06 32° SE 15:01:21 10° E daylight
31 Jul - 16:40:16 10° SW 16:53:50 52° SSE 17:07:43 10° E daylight
31 Jul - 18:45:04 10° WSW 18:59:33 56° S 19:12:30 10° ESE daylight
31 Jul - 20:51:23 10° W 21:04:34 40° SSW 21:15:22 10° SSE visible
31 Jul - 23:00:31 10° W 23:07:39 16° SW 23:13:51 10° SSW visible
01 Aug - 14:05:46 10° SSW 14:15:58 29° SE 14:27:36 10° E daylight
01 Aug - 16:07:18 10° SW 16:20:24 50° SSE 16:34:24 10° E daylight
01 Aug - 18:11:44 10° WSW 18:26:05 57° S 18:39:32 10° ESE daylight
01 Aug - 20:17:44 10° W 20:31:21 43° SSW 20:42:50 10° SE daylight
01 Aug - 22:26:02 10° W 22:34:48 20° SW 22:42:21 10° S visible
02 Aug - 13:33:34 10° S 13:42:54 25° SE 13:53:43 10° E daylight
02 Aug - 15:34:27 10° SW 15:47:00 48° SSE 16:00:59 10° E daylight
02 Aug - 17:38:29 10° WSW 17:52:35 57° S 18:06:27 10° ESE daylight
02 Aug - 19:44:10 10° W 19:58:03 46° SSW 20:10:11 10° SE daylight
02 Aug - 21:51:50 10° W 22:01:53 23° SW 22:10:31 10° S visible
03 Aug - 13:01:35 10° S 13:09:56 22° SE 13:19:39 10° E daylight
03 Aug - 15:01:43 10° SW 15:13:39 45° SSE 15:27:29 10° E daylight
03 Aug - 17:05:20 10° WSW 17:19:05 57° S 17:33:15 10° ESE daylight
03 Aug - 19:10:41 10° W 19:24:41 48° SSW 19:37:24 10° SE daylight
03 Aug - 21:17:50 10° W 21:28:53 26° SW 21:38:29 10° S visible
04 Aug - 12:29:50 10° SSE 12:37:02 19° SE 12:45:24 10° E daylight
04 Aug - 14:29:05 10° SW 14:40:23 42° SSE 14:53:54 10° E daylight
04 Aug - 16:32:17 10° WSW 16:45:34 57° S 17:00:00 10° ESE daylight
04 Aug - 18:37:19 10° W 18:51:17 51° SSW 19:04:31 10° SE daylight
04 Aug - 20:43:59 10° W 20:55:48 29° SW 21:06:14 10° SSE visible
05 Aug - 11:58:26 10° SSE 12:04:13 15° SE 12:10:49 10° E daylight
05 Aug - 13:56:35 10° SSW 14:07:11 39° SSE 14:20:14 10° E daylight
05 Aug - 15:59:19 10° WSW 16:12:07 56° S 16:26:37 10° E daylight
05 Aug - 18:04:01 10° W 18:17:51 52° SSW 18:31:32 10° SE daylight
05 Aug - 20:10:16 10° W 20:22:39 33° SW 20:33:51 10° SSE daylight
05 Aug - 22:23:27 10° WSW 22:25:31 10° WSW 22:27:32 10° SW visible
06 Aug - 11:27:45 10° SE 11:31:29 12° SE 11:35:35 10° ESE daylight
06 Aug - 13:24:12 10° SSW 13:34:04 35° SE 13:46:29 10° E daylight
06 Aug - 15:26:28 10° WSW 15:38:42 54° S 15:53:10 10° E daylight
06 Aug - 17:30:49 10° W 17:44:22 54° SSW 17:58:26 10° ESE daylight
06 Aug - 19:36:41 10° W 19:49:25 36° SW 20:01:18 10° SSE daylight
06 Aug - 21:46:58 10° WSW 21:52:39 13° SW 21:58:02 10° SSW visible
